Year,Month,Day,Hour,Minute,Value (Times are PST for temperature in C)
2013,05,05,00,00,13.80
2013,05,05,00,01,13.80
2013,05,05,00,02,13.80
2013,05,05,00,03,13.70
2013,05,05,00,04,13.70
2013,05,05,00,05,13.70
2013,05,05,00,06,13.70
2013,05,05,00,07,13.70
2013,05,05,00,08,13.70
2013,05,05,00,09,13.70
2013,05,05,00,10,13.70
2013,05,05,00,11,13.70
2013,05,05,00,12,13.70
2013,05,05,00,13,13.70
2013,05,05,00,14,13.60
2013,05,05,00,15,13.60
2013,05,05,00,16,13.60
2013,05,05,00,17,13.60
2013,05,05,00,18,13.60
2013,05,05,00,19,13.50
2013,05,05,00,20,13.50
2013,05,05,00,21,13.40
2013,05,05,00,22,13.40
2013,05,05,00,23,13.40
2013,05,05,00,24,13.40
2013,05,05,00,25,13.40
2013,05,05,00,26,13.40
2013,05,05,00,27,13.40
2013,05,05,00,28,13.40
2013,05,05,00,29,13.40
2013,05,05,00,30,13.30
2013,05,05,00,31,13.30
2013,05,05,00,32,13.30
2013,05,05,00,33,13.30
2013,05,05,00,34,13.30
2013,05,05,00,35,13.30
2013,05,05,00,36,13.30
2013,05,05,00,37,13.40
2013,05,05,00,38,13.40
2013,05,05,00,39,13.30
2013,05,05,00,40,13.30
2013,05,05,00,41,13.30
2013,05,05,00,42,13.30
2013,05,05,00,43,13.30
2013,05,05,00,44,13.30
2013,05,05,00,45,13.30
2013,05,05,00,46,13.30
2013,05,05,00,47,13.30
2013,05,05,00,48,13.40
2013,05,05,00,49,13.40
2013,05,05,00,50,13.40
2013,05,05,00,51,13.50
2013,05,05,00,52,13.60
2013,05,05,00,53,13.60
2013,05,05,00,54,13.70
2013,05,05,00,55,13.80
2013,05,05,00,56,13.80
2013,05,05,00,57,13.80
2013,05,05,00,58,13.90
2013,05,05,00,59,13.90
2013,05,05,01,00,13.90
2013,05,05,01,01,13.90
2013,05,05,01,02,14.00
2013,05,05,01,03,14.00
2013,05,05,01,04,14.10
2013,05,05,01,05,14.10
2013,05,05,01,06,14.10
2013,05,05,01,07,14.10
2013,05,05,01,08,14.00
2013,05,05,01,09,14.00
2013,05,05,01,10,13.90
2013,05,05,01,11,13.90
2013,05,05,01,12,13.90
2013,05,05,01,13,13.80
2013,05,05,01,14,13.80
2013,05,05,01,15,13.80
2013,05,05,01,16,13.70
2013,05,05,01,17,13.70
2013,05,05,01,18,13.70
2013,05,05,01,19,13.60
2013,05,05,01,20,13.60
2013,05,05,01,21,13.60
2013,05,05,01,22,13.60
2013,05,05,01,23,13.50
2013,05,05,01,24,13.50
2013,05,05,01,25,13.50
2013,05,05,01,26,13.50
2013,05,05,01,27,13.50
2013,05,05,01,28,13.50
2013,05,05,01,29,13.40
2013,05,05,01,30,13.40
2013,05,05,01,31,13.40
2013,05,05,01,32,13.40
2013,05,05,01,33,13.40
2013,05,05,01,34,13.40
2013,05,05,01,35,13.40
2013,05,05,01,36,13.30
2013,05,05,01,37,13.30
2013,05,05,01,38,13.20
2013,05,05,01,39,13.20
2013,05,05,01,40,13.20
2013,05,05,01,41,13.10
2013,05,05,01,42,13.10
2013,05,05,01,43,13.10
2013,05,05,01,44,13.00
2013,05,05,01,45,13.00
2013,05,05,01,46,12.90
2013,05,05,01,47,12.90
2013,05,05,01,48,12.90
2013,05,05,01,49,12.80
2013,05,05,01,50,12.80
2013,05,05,01,51,12.80
2013,05,05,01,52,12.80
2013,05,05,01,53,12.70
2013,05,05,01,54,12.70
2013,05,05,01,55,12.70
2013,05,05,01,56,12.70
2013,05,05,01,57,12.70
2013,05,05,01,58,12.70
2013,05,05,01,59,12.70
2013,05,05,02,00,12.70
2013,05,05,02,01,12.70
2013,05,05,02,02,12.80
2013,05,05,02,03,12.80
2013,05,05,02,04,12.90
2013,05,05,02,05,12.90
2013,05,05,02,06,13.00
2013,05,05,02,07,13.10
2013,05,05,02,08,13.10
2013,05,05,02,09,13.20
2013,05,05,02,10,13.10
2013,05,05,02,11,13.10
2013,05,05,02,12,13.10
2013,05,05,02,13,13.10
2013,05,05,02,14,13.10
2013,05,05,02,15,13.10
2013,05,05,02,16,13.00
2013,05,05,02,17,13.00
2013,05,05,02,18,12.90
2013,05,05,02,19,12.90
2013,05,05,02,20,12.90
2013,05,05,02,21,12.90
2013,05,05,02,22,12.80
2013,05,05,02,23,12.80
2013,05,05,02,24,12.80
2013,05,05,02,25,12.80
2013,05,05,02,26,12.80
2013,05,05,02,27,12.80
2013,05,05,02,28,12.90
2013,05,05,02,29,12.90
2013,05,05,02,30,12.90
2013,05,05,02,31,12.90
2013,05,05,02,32,13.00
2013,05,05,02,33,13.00
2013,05,05,02,34,13.00
2013,05,05,02,35,13.10
2013,05,05,02,36,13.10
2013,05,05,02,37,13.10
2013,05,05,02,38,13.10
2013,05,05,02,39,13.00
2013,05,05,02,40,13.00
2013,05,05,02,41,13.00
2013,05,05,02,42,13.00
2013,05,05,02,43,13.10
2013,05,05,02,44,13.10
2013,05,05,02,45,13.20
2013,05,05,02,46,13.20
2013,05,05,02,47,13.30
2013,05,05,02,48,13.30
2013,05,05,02,49,13.30
2013,05,05,02,50,13.30
2013,05,05,02,51,13.30
2013,05,05,02,52,13.30
2013,05,05,02,53,13.40
2013,05,05,02,54,13.50
2013,05,05,02,55,13.60
2013,05,05,02,56,13.70
2013,05,05,02,57,13.80
2013,05,05,02,58,14.00
2013,05,05,02,59,14.10
2013,05,05,03,00,14.20
2013,05,05,03,01,14.30
2013,05,05,03,02,14.50
2013,05,05,03,03,14.60
2013,05,05,03,04,14.70
2013,05,05,03,05,14.80
2013,05,05,03,06,14.90
2013,05,05,03,07,15.00
2013,05,05,03,08,15.00
2013,05,05,03,09,15.00
2013,05,05,03,10,15.00
2013,05,05,03,11,15.00
2013,05,05,03,12,15.10
2013,05,05,03,13,15.20
2013,05,05,03,14,15.30
2013,05,05,03,15,15.30
2013,05,05,03,16,15.30
2013,05,05,03,17,15.40
2013,05,05,03,18,15.40
2013,05,05,03,19,15.50
2013,05,05,03,20,15.60
2013,05,05,03,21,15.60
2013,05,05,03,22,15.70
2013,05,05,03,23,15.70
2013,05,05,03,24,15.70
2013,05,05,03,25,15.70
2013,05,05,03,26,15.70
2013,05,05,03,27,15.70
2013,05,05,03,28,15.70
2013,05,05,03,29,15.70
2013,05,05,03,30,15.70
2013,05,05,03,31,15.70
2013,05,05,03,32,15.70
2013,05,05,03,33,15.70
2013,05,05,03,34,15.70
2013,05,05,03,35,15.80
2013,05,05,03,36,15.80
2013,05,05,03,37,15.80
2013,05,05,03,38,15.90
2013,05,05,03,39,15.90
2013,05,05,03,40,15.90
2013,05,05,03,41,15.90
2013,05,05,03,42,15.90
2013,05,05,03,43,16.00
2013,05,05,03,44,16.00
2013,05,05,03,45,15.90
2013,05,05,03,46,15.90
2013,05,05,03,47,15.90
2013,05,05,03,48,15.90
2013,05,05,03,49,15.90
2013,05,05,03,50,15.90
2013,05,05,03,51,15.80
2013,05,05,03,52,15.80
2013,05,05,03,53,15.80
2013,05,05,03,54,15.80
2013,05,05,03,55,15.70
2013,05,05,03,56,15.70
2013,05,05,03,57,15.70
2013,05,05,03,58,15.60
2013,05,05,03,59,15.50
2013,05,05,04,00,15.50
2013,05,05,04,01,15.40
2013,05,05,04,02,15.40
2013,05,05,04,03,15.40
2013,05,05,04,04,15.40
2013,05,05,04,05,15.40
2013,05,05,04,06,15.40
2013,05,05,04,07,15.30
2013,05,05,04,08,15.30
2013,05,05,04,09,15.30
2013,05,05,04,10,15.20
2013,05,05,04,11,15.20
2013,05,05,04,12,15.10
2013,05,05,04,13,15.10
2013,05,05,04,14,15.00
2013,05,05,04,15,15.00
2013,05,05,04,16,15.00
2013,05,05,04,17,15.00
2013,05,05,04,18,15.00
2013,05,05,04,19,15.00
2013,05,05,04,20,15.00
2013,05,05,04,21,15.00
2013,05,05,04,22,15.00
2013,05,05,04,23,15.00
2013,05,05,04,24,15.00
2013,05,05,04,25,15.00
2013,05,05,04,26,14.90
2013,05,05,04,27,14.90
2013,05,05,04,28,14.90
2013,05,05,04,29,14.90
2013,05,05,04,30,14.80
2013,05,05,04,31,14.80
2013,05,05,04,32,14.90
2013,05,05,04,33,14.90
2013,05,05,04,34,14.90
2013,05,05,04,35,14.90
2013,05,05,04,36,14.90
2013,05,05,04,37,14.90
2013,05,05,04,38,14.90
2013,05,05,04,39,14.80
2013,05,05,04,40,14.80
2013,05,05,04,41,14.80
2013,05,05,04,42,14.80
2013,05,05,04,43,14.80
2013,05,05,04,44,14.80
2013,05,05,04,45,14.80
2013,05,05,04,46,14.80
2013,05,05,04,47,14.80
2013,05,05,04,48,14.80
2013,05,05,04,49,14.80
2013,05,05,04,50,14.80
2013,05,05,04,51,14.80
2013,05,05,04,52,14.80
2013,05,05,04,53,14.80
2013,05,05,04,54,14.80
2013,05,05,04,55,14.80
2013,05,05,04,56,14.80
2013,05,05,04,57,14.80
2013,05,05,04,58,14.80
2013,05,05,04,59,14.80
2013,05,05,05,00,14.80
2013,05,05,05,01,14.80
2013,05,05,05,02,14.80
2013,05,05,05,03,14.80
2013,05,05,05,04,14.80
2013,05,05,05,05,14.70
2013,05,05,05,06,14.70
2013,05,05,05,07,14.70
2013,05,05,05,08,14.70
2013,05,05,05,09,14.70
2013,05,05,05,10,14.60
2013,05,05,05,11,14.60
2013,05,05,05,12,14.60
2013,05,05,05,13,14.50
2013,05,05,05,14,14.50
2013,05,05,05,15,14.50
2013,05,05,05,16,14.50
2013,05,05,05,17,14.40
2013,05,05,05,18,14.40
2013,05,05,05,19,14.40
2013,05,05,05,20,14.30
2013,05,05,05,21,14.30
2013,05,05,05,22,14.30
2013,05,05,05,23,14.30
2013,05,05,05,24,14.30
2013,05,05,05,25,14.30
2013,05,05,05,26,14.30
2013,05,05,05,27,14.30
2013,05,05,05,28,14.20
2013,05,05,05,29,14.20
2013,05,05,05,30,14.20
2013,05,05,05,31,14.20
2013,05,05,05,32,14.20
2013,05,05,05,33,14.20
2013,05,05,05,34,14.10
2013,05,05,05,35,14.10
2013,05,05,05,36,14.10
2013,05,05,05,37,14.10
2013,05,05,05,38,14.10
2013,05,05,05,39,14.10
2013,05,05,05,40,14.00
2013,05,05,05,41,14.00
2013,05,05,05,42,14.00
2013,05,05,05,43,13.90
2013,05,05,05,44,13.90
2013,05,05,05,45,13.80
2013,05,05,05,46,13.80
2013,05,05,05,47,13.70
2013,05,05,05,48,13.70
2013,05,05,05,49,13.60
2013,05,05,05,50,13.50
2013,05,05,05,51,13.50
2013,05,05,05,52,13.40
2013,05,05,05,53,13.40
2013,05,05,05,54,13.40
2013,05,05,05,55,13.30
2013,05,05,05,56,13.30
2013,05,05,05,57,13.30
2013,05,05,05,58,13.20
2013,05,05,05,59,13.20
2013,05,05,06,00,13.10
2013,05,05,06,01,13.10
2013,05,05,06,02,13.00
2013,05,05,06,03,13.00
2013,05,05,06,04,12.90
2013,05,05,06,05,12.90
2013,05,05,06,06,12.90
2013,05,05,06,07,12.90
2013,05,05,06,08,12.90
2013,05,05,06,09,12.90
2013,05,05,06,10,12.90
2013,05,05,06,11,12.90
2013,05,05,06,12,12.90
2013,05,05,06,13,12.90
2013,05,05,06,14,12.90
2013,05,05,06,15,13.00
2013,05,05,06,16,13.00
2013,05,05,06,17,13.00
2013,05,05,06,18,13.00
2013,05,05,06,19,13.00
2013,05,05,06,20,13.00
2013,05,05,06,21,13.00
2013,05,05,06,22,13.00
2013,05,05,06,23,13.00
2013,05,05,06,24,13.10
2013,05,05,06,25,13.10
2013,05,05,06,26,13.10
2013,05,05,06,27,13.20
2013,05,05,06,28,13.20
2013,05,05,06,29,13.30
2013,05,05,06,30,13.30
2013,05,05,06,31,13.30
2013,05,05,06,32,13.40
2013,05,05,06,33,13.40
2013,05,05,06,34,13.40
2013,05,05,06,35,13.40
2013,05,05,06,36,13.40
2013,05,05,06,37,13.50
2013,05,05,06,38,13.50
2013,05,05,06,39,13.50
2013,05,05,06,40,13.50
2013,05,05,06,41,13.50
2013,05,05,06,42,13.60
2013,05,05,06,43,13.60
2013,05,05,06,44,13.60
2013,05,05,06,45,13.70
2013,05,05,06,46,13.70
2013,05,05,06,47,13.80
2013,05,05,06,48,13.90
2013,05,05,06,49,14.00
2013,05,05,06,50,14.10
2013,05,05,06,51,14.10
2013,05,05,06,52,14.20
2013,05,05,06,53,14.30
2013,05,05,06,54,14.40
2013,05,05,06,55,14.50
2013,05,05,06,56,14.60
2013,05,05,06,57,14.70
2013,05,05,06,58,14.80
2013,05,05,06,59,14.90
2013,05,05,07,00,15.00
2013,05,05,07,01,15.00
2013,05,05,07,02,15.00
2013,05,05,07,03,15.00
2013,05,05,07,04,15.20
2013,05,05,07,05,15.30
2013,05,05,07,06,15.40
2013,05,05,07,07,15.50
2013,05,05,07,08,15.60
2013,05,05,07,09,15.70
2013,05,05,07,10,15.70
2013,05,05,07,11,15.80
2013,05,05,07,12,15.80
2013,05,05,07,13,15.90
2013,05,05,07,14,15.90
2013,05,05,07,15,16.00
2013,05,05,07,16,16.00
2013,05,05,07,17,16.10
2013,05,05,07,18,16.20
2013,05,05,07,19,16.30
2013,05,05,07,20,16.40
2013,05,05,07,21,16.40
2013,05,05,07,22,16.50
2013,05,05,07,23,16.60
2013,05,05,07,24,16.70
2013,05,05,07,25,16.80
2013,05,05,07,26,16.90
2013,05,05,07,27,17.00
2013,05,05,07,28,17.00
2013,05,05,07,29,17.10
2013,05,05,07,30,17.20
2013,05,05,07,31,17.20
2013,05,05,07,32,17.30
2013,05,05,07,33,17.30
2013,05,05,07,34,17.20
2013,05,05,07,35,17.20
2013,05,05,07,36,17.20
2013,05,05,07,37,17.10
2013,05,05,07,38,17.10
2013,05,05,07,39,17.10
2013,05,05,07,40,17.00
2013,05,05,07,41,17.00
2013,05,05,07,42,16.90
2013,05,05,07,43,16.90
2013,05,05,07,44,16.90
2013,05,05,07,45,16.90
2013,05,05,07,46,17.00
2013,05,05,07,47,17.00
2013,05,05,07,48,17.10
2013,05,05,07,49,17.10
2013,05,05,07,50,17.10
2013,05,05,07,51,17.10
2013,05,05,07,52,17.10
2013,05,05,07,53,17.10
2013,05,05,07,54,17.10
2013,05,05,07,55,17.10
2013,05,05,07,56,17.10
2013,05,05,07,57,17.10
2013,05,05,07,58,17.10
2013,05,05,07,59,17.10
2013,05,05,08,00,17.10
2013,05,05,08,01,17.10
2013,05,05,08,02,17.10
2013,05,05,08,03,17.10
2013,05,05,08,04,17.20
2013,05,05,08,05,17.20
2013,05,05,08,06,17.20
2013,05,05,08,07,17.30
2013,05,05,08,08,17.40
2013,05,05,08,09,17.40
2013,05,05,08,10,17.40
2013,05,05,08,11,17.50
2013,05,05,08,12,17.50
2013,05,05,08,13,17.50
2013,05,05,08,14,17.60
2013,05,05,08,15,17.50
2013,05,05,08,16,17.50
2013,05,05,08,17,17.40
2013,05,05,08,18,17.40
2013,05,05,08,19,17.40
2013,05,05,08,20,17.30
2013,05,05,08,21,17.30
2013,05,05,08,22,17.30
2013,05,05,08,23,17.20
2013,05,05,08,24,17.20
2013,05,05,08,25,17.20
2013,05,05,08,26,17.20
2013,05,05,08,27,17.20
2013,05,05,08,28,17.10
2013,05,05,08,29,17.10
2013,05,05,08,30,17.10
2013,05,05,08,31,17.00
2013,05,05,08,32,17.00
2013,05,05,08,33,17.00
2013,05,05,08,34,17.00
2013,05,05,08,35,17.00
2013,05,05,08,36,17.10
2013,05,05,08,37,17.10
2013,05,05,08,38,17.20
2013,05,05,08,39,17.20
2013,05,05,08,40,17.20
2013,05,05,08,41,17.20
2013,05,05,08,42,17.10
2013,05,05,08,43,17.10
2013,05,05,08,44,17.20
2013,05,05,08,45,17.20
2013,05,05,08,46,17.30
2013,05,05,08,47,17.40
2013,05,05,08,48,17.50
2013,05,05,08,49,17.50
2013,05,05,08,50,17.60
2013,05,05,08,51,17.60
2013,05,05,08,52,17.50
2013,05,05,08,53,17.50
2013,05,05,08,54,17.50
2013,05,05,08,55,17.50
2013,05,05,08,56,17.50
2013,05,05,08,57,17.60
2013,05,05,08,58,17.60
2013,05,05,08,59,17.60
2013,05,05,09,00,17.60
2013,05,05,09,01,17.50
2013,05,05,09,02,17.50
2013,05,05,09,03,17.40
2013,05,05,09,04,17.30
2013,05,05,09,05,17.30
2013,05,05,09,06,17.30
2013,05,05,09,07,17.30
2013,05,05,09,08,17.30
2013,05,05,09,09,17.30
2013,05,05,09,10,17.40
2013,05,05,09,11,17.40
2013,05,05,09,12,17.50
2013,05,05,09,13,17.60
2013,05,05,09,14,17.70
2013,05,05,09,15,17.70
2013,05,05,09,16,17.80
2013,05,05,09,17,17.90
2013,05,05,09,18,17.90
2013,05,05,09,19,17.90
2013,05,05,09,20,17.90
2013,05,05,09,21,17.90
2013,05,05,09,22,17.90
2013,05,05,09,23,17.90
2013,05,05,09,24,17.90
2013,05,05,09,25,18.00
2013,05,05,09,26,18.00
2013,05,05,09,27,18.10
2013,05,05,09,28,18.20
2013,05,05,09,29,18.20
2013,05,05,09,30,18.20
2013,05,05,09,31,18.20
2013,05,05,09,32,18.20
2013,05,05,09,33,18.10
2013,05,05,09,34,18.10
2013,05,05,09,35,18.20
2013,05,05,09,36,18.20
2013,05,05,09,37,18.20
2013,05,05,09,38,18.30
2013,05,05,09,39,18.40
2013,05,05,09,40,18.50
2013,05,05,09,41,18.50
2013,05,05,09,42,18.60
2013,05,05,09,43,18.70
2013,05,05,09,44,18.70
2013,05,05,09,45,18.80
2013,05,05,09,46,18.90
2013,05,05,09,47,18.90
2013,05,05,09,48,18.90
2013,05,05,09,49,18.90
2013,05,05,09,50,18.90
2013,05,05,09,51,18.80
2013,05,05,09,52,18.80
2013,05,05,09,53,18.70
2013,05,05,09,54,18.70
2013,05,05,09,55,18.70
2013,05,05,09,56,18.70
2013,05,05,09,57,18.70
2013,05,05,09,58,18.70
2013,05,05,09,59,18.70
2013,05,05,10,00,18.80
2013,05,05,10,01,18.90
2013,05,05,10,02,19.00
2013,05,05,10,03,19.00
2013,05,05,10,04,19.00
2013,05,05,10,05,19.10
2013,05,05,10,06,19.10
2013,05,05,10,07,19.10
2013,05,05,10,08,19.20
2013,05,05,10,09,19.20
2013,05,05,10,10,19.20
2013,05,05,10,11,19.20
2013,05,05,10,12,19.20
2013,05,05,10,13,19.20
2013,05,05,10,14,19.20
2013,05,05,10,15,19.20
2013,05,05,10,16,19.30
2013,05,05,10,17,19.30
2013,05,05,10,18,19.30
2013,05,05,10,19,19.30
2013,05,05,10,20,19.50
2013,05,05,10,21,19.60
2013,05,05,10,22,19.60
2013,05,05,10,23,19.60
2013,05,05,10,24,19.60
2013,05,05,10,25,19.50
2013,05,05,10,26,19.50
2013,05,05,10,27,19.50
2013,05,05,10,28,19.50
2013,05,05,10,29,19.50
2013,05,05,10,30,19.50
2013,05,05,10,31,19.60
2013,05,05,10,32,19.60
2013,05,05,10,33,19.60
2013,05,05,10,34,19.70
2013,05,05,10,35,19.70
2013,05,05,10,36,19.70
2013,05,05,10,37,19.80
2013,05,05,10,38,19.80
2013,05,05,10,39,19.70
2013,05,05,10,40,19.60
2013,05,05,10,41,19.50
2013,05,05,10,42,19.40
2013,05,05,10,43,19.40
2013,05,05,10,44,19.50
2013,05,05,10,45,19.60
2013,05,05,10,46,19.70
2013,05,05,10,47,19.70
2013,05,05,10,48,19.70
2013,05,05,10,49,19.60
2013,05,05,10,50,19.60
2013,05,05,10,51,19.50
2013,05,05,10,52,19.50
2013,05,05,10,53,19.60
2013,05,05,10,54,19.60
2013,05,05,10,55,19.70
2013,05,05,10,56,19.80
2013,05,05,10,57,19.90
2013,05,05,10,58,20.00
2013,05,05,10,59,20.00
2013,05,05,11,00,20.00
2013,05,05,11,01,20.00
2013,05,05,11,02,20.00
2013,05,05,11,03,20.10
2013,05,05,11,04,20.10
2013,05,05,11,05,20.10
2013,05,05,11,06,20.10
2013,05,05,11,07,20.10
2013,05,05,11,08,20.10
2013,05,05,11,09,20.20
2013,05,05,11,10,20.20
2013,05,05,11,11,20.20
2013,05,05,11,12,20.20
2013,05,05,11,13,20.30
2013,05,05,11,14,20.40
2013,05,05,11,15,20.50
2013,05,05,11,16,20.70
2013,05,05,11,17,20.70
2013,05,05,11,18,20.70
2013,05,05,11,19,20.70
2013,05,05,11,20,20.60
2013,05,05,11,21,20.70
2013,05,05,11,22,20.70
2013,05,05,11,23,20.80
2013,05,05,11,24,20.80
2013,05,05,11,25,20.70
2013,05,05,11,26,20.60
2013,05,05,11,27,20.60
2013,05,05,11,28,20.50
2013,05,05,11,29,20.40
2013,05,05,11,30,20.40
2013,05,05,11,31,20.40
2013,05,05,11,32,20.40
2013,05,05,11,33,20.50
2013,05,05,11,34,20.50
2013,05,05,11,35,20.60
2013,05,05,11,36,20.70
2013,05,05,11,37,20.80
2013,05,05,11,38,20.90
2013,05,05,11,39,20.80
2013,05,05,11,40,20.80
2013,05,05,11,41,20.80
2013,05,05,11,42,20.80
2013,05,05,11,43,20.80
2013,05,05,11,44,20.90
2013,05,05,11,45,20.90
2013,05,05,11,46,21.00
2013,05,05,11,47,21.00
2013,05,05,11,48,20.90
2013,05,05,11,49,20.90
2013,05,05,11,50,20.80
2013,05,05,11,51,20.80
2013,05,05,11,52,20.80
2013,05,05,11,53,20.90
2013,05,05,11,54,21.00
2013,05,05,11,55,21.10
2013,05,05,11,56,21.10
2013,05,05,11,57,21.10
2013,05,05,11,58,21.00
2013,05,05,11,59,21.00
2013,05,05,12,00,21.10
2013,05,05,12,01,21.10
2013,05,05,12,02,21.20
2013,05,05,12,03,21.20
2013,05,05,12,04,21.30
2013,05,05,12,05,21.30
2013,05,05,12,06,21.30
2013,05,05,12,07,21.20
2013,05,05,12,08,21.20
2013,05,05,12,09,21.20
2013,05,05,12,10,21.20
2013,05,05,12,11,21.20
2013,05,05,12,12,21.30
2013,05,05,12,13,21.30
2013,05,05,12,14,21.30
2013,05,05,12,15,21.30
2013,05,05,12,16,21.30
2013,05,05,12,17,21.30
2013,05,05,12,18,21.20
2013,05,05,12,19,21.10
2013,05,05,12,20,21.10
2013,05,05,12,21,21.10
2013,05,05,12,22,21.20
2013,05,05,12,23,21.20
2013,05,05,12,24,21.20
2013,05,05,12,25,21.20
2013,05,05,12,26,21.10
2013,05,05,12,27,21.10
2013,05,05,12,28,21.10
2013,05,05,12,29,21.10
2013,05,05,12,30,21.10
2013,05,05,12,31,21.10
2013,05,05,12,32,21.10
2013,05,05,12,33,21.10
2013,05,05,12,34,21.10
2013,05,05,12,35,21.10
2013,05,05,12,36,21.10
2013,05,05,12,37,21.10
2013,05,05,12,38,21.00
2013,05,05,12,39,21.00
2013,05,05,12,40,21.00
2013,05,05,12,41,21.10
2013,05,05,12,42,21.10
2013,05,05,12,43,21.10
2013,05,05,12,44,21.10
2013,05,05,12,45,21.10
2013,05,05,12,46,21.10
2013,05,05,12,47,21.20
2013,05,05,12,48,21.20
2013,05,05,12,49,21.20
2013,05,05,12,50,21.30
2013,05,05,12,51,21.40
2013,05,05,12,52,21.50
2013,05,05,12,53,21.60
2013,05,05,12,54,21.70
2013,05,05,12,55,21.80
2013,05,05,12,56,21.80
2013,05,05,12,57,22.00
2013,05,05,12,58,22.10
2013,05,05,12,59,22.20
2013,05,05,13,00,22.30
2013,05,05,13,01,22.40
2013,05,05,13,02,22.30
2013,05,05,13,03,22.30
2013,05,05,13,04,22.30
2013,05,05,13,05,22.40
2013,05,05,13,06,22.50
2013,05,05,13,07,22.50
2013,05,05,13,08,22.50
2013,05,05,13,09,22.50
2013,05,05,13,10,22.40
2013,05,05,13,11,22.30
2013,05,05,13,12,22.30
2013,05,05,13,13,22.20
2013,05,05,13,14,22.20
2013,05,05,13,15,22.20
2013,05,05,13,16,22.30
2013,05,05,13,17,22.30
2013,05,05,13,18,22.50
2013,05,05,13,19,22.50
2013,05,05,13,20,22.60
2013,05,05,13,21,22.70
2013,05,05,13,22,22.80
2013,05,05,13,23,22.90
2013,05,05,13,24,23.00
2013,05,05,13,25,23.10
2013,05,05,13,26,23.20
2013,05,05,13,27,23.20
2013,05,05,13,28,23.30
2013,05,05,13,29,23.40
2013,05,05,13,30,23.50
2013,05,05,13,31,23.50
2013,05,05,13,32,23.50
2013,05,05,13,33,23.40
2013,05,05,13,34,23.20
2013,05,05,13,35,23.20
2013,05,05,13,36,23.10
2013,05,05,13,37,23.00
2013,05,05,13,38,23.00
2013,05,05,13,39,23.10
2013,05,05,13,40,23.10
2013,05,05,13,41,23.20
2013,05,05,13,42,23.30
2013,05,05,13,43,23.20
2013,05,05,13,44,23.10
2013,05,05,13,45,23.10
2013,05,05,13,46,23.00
2013,05,05,13,47,23.10
2013,05,05,13,48,23.20
2013,05,05,13,49,23.40
2013,05,05,13,50,23.40
2013,05,05,13,51,23.50
2013,05,05,13,52,23.50
2013,05,05,13,53,23.50
2013,05,05,13,54,23.60
2013,05,05,13,55,23.60
2013,05,05,13,56,23.60
2013,05,05,13,57,23.60
2013,05,05,13,58,23.70
2013,05,05,13,59,23.90
2013,05,05,14,00,24.00
2013,05,05,14,01,24.10
2013,05,05,14,02,24.10
2013,05,05,14,03,24.10
2013,05,05,14,04,24.10
2013,05,05,14,05,24.10
2013,05,05,14,06,24.00
2013,05,05,14,07,23.90
2013,05,05,14,08,23.90
2013,05,05,14,09,23.90
2013,05,05,14,10,24.10
2013,05,05,14,11,24.10
2013,05,05,14,12,24.20
2013,05,05,14,13,24.30
2013,05,05,14,14,24.30
2013,05,05,14,15,24.40
2013,05,05,14,16,24.40
2013,05,05,14,17,24.40
2013,05,05,14,18,24.30
2013,05,05,14,19,24.30
2013,05,05,14,20,24.20
2013,05,05,14,21,24.10
2013,05,05,14,22,24.10
2013,05,05,14,23,24.00
2013,05,05,14,24,24.00
2013,05,05,14,25,23.90
2013,05,05,14,26,23.90
2013,05,05,14,27,23.80
2013,05,05,14,28,23.90
2013,05,05,14,29,23.90
2013,05,05,14,30,23.90
2013,05,05,14,31,24.00
2013,05,05,14,32,24.10
2013,05,05,14,33,24.20
2013,05,05,14,34,24.30
2013,05,05,14,35,24.50
2013,05,05,14,36,24.60
2013,05,05,14,37,24.70
2013,05,05,14,38,24.80
2013,05,05,14,39,24.90
2013,05,05,14,40,24.90
2013,05,05,14,41,24.80
2013,05,05,14,42,24.70
2013,05,05,14,43,24.60
2013,05,05,14,44,24.60
2013,05,05,14,45,24.60
2013,05,05,14,46,24.60
2013,05,05,14,47,24.60
2013,05,05,14,48,24.70
2013,05,05,14,49,24.80
2013,05,05,14,50,24.80
2013,05,05,14,51,24.90
2013,05,05,14,52,25.00
2013,05,05,14,53,25.00
2013,05,05,14,54,25.00
2013,05,05,14,55,24.90
2013,05,05,14,56,24.80
2013,05,05,14,57,24.80
2013,05,05,14,58,24.80
2013,05,05,14,59,24.90
2013,05,05,15,00,24.90
2013,05,05,15,01,24.90
2013,05,05,15,02,24.80
2013,05,05,15,03,24.80
2013,05,05,15,04,24.80
2013,05,05,15,05,24.80
2013,05,05,15,06,24.80
2013,05,05,15,07,24.80
2013,05,05,15,08,24.90
2013,05,05,15,09,24.90
2013,05,05,15,10,25.00
2013,05,05,15,11,25.20
2013,05,05,15,12,25.30
2013,05,05,15,13,25.30
2013,05,05,15,14,25.40
2013,05,05,15,15,25.50
2013,05,05,15,16,25.40
2013,05,05,15,17,25.30
2013,05,05,15,18,25.30
2013,05,05,15,19,25.20
2013,05,05,15,20,25.20
2013,05,05,15,21,25.30
2013,05,05,15,22,25.40
2013,05,05,15,23,25.50
2013,05,05,15,24,25.60
2013,05,05,15,25,25.70
2013,05,05,15,26,25.70
2013,05,05,15,27,25.70
2013,05,05,15,28,25.70
2013,05,05,15,29,25.70
2013,05,05,15,30,25.70
2013,05,05,15,31,25.70
2013,05,05,15,32,25.70
2013,05,05,15,33,25.70
2013,05,05,15,34,25.70
2013,05,05,15,35,25.70
2013,05,05,15,36,25.70
2013,05,05,15,37,25.80
2013,05,05,15,38,25.80
2013,05,05,15,39,25.80
2013,05,05,15,40,25.80
2013,05,05,15,41,25.80
2013,05,05,15,42,25.80
2013,05,05,15,43,25.90
2013,05,05,15,44,25.90
2013,05,05,15,45,25.90
2013,05,05,15,46,26.00
2013,05,05,15,47,26.00
2013,05,05,15,48,25.90
2013,05,05,15,49,25.90
2013,05,05,15,50,25.90
2013,05,05,15,51,25.80
2013,05,05,15,52,25.80
2013,05,05,15,53,25.80
2013,05,05,15,54,25.90
2013,05,05,15,55,25.90
2013,05,05,15,56,25.90
2013,05,05,15,57,26.00
2013,05,05,15,58,26.00
2013,05,05,15,59,26.00
2013,05,05,16,00,26.00
2013,05,05,16,01,26.10
2013,05,05,16,02,26.20
2013,05,05,16,03,26.30
2013,05,05,16,04,26.30
2013,05,05,16,05,26.30
2013,05,05,16,06,26.20
2013,05,05,16,07,26.20
2013,05,05,16,08,26.20
2013,05,05,16,09,26.10
2013,05,05,16,10,25.90
2013,05,05,16,11,25.90
2013,05,05,16,12,25.90
2013,05,05,16,13,25.90
2013,05,05,16,14,25.80
2013,05,05,16,15,25.70
2013,05,05,16,16,25.60
2013,05,05,16,17,25.50
2013,05,05,16,18,25.60
2013,05,05,16,19,25.60
2013,05,05,16,20,25.70
2013,05,05,16,21,25.90
2013,05,05,16,22,26.00
2013,05,05,16,23,26.10
2013,05,05,16,24,26.00
2013,05,05,16,25,25.90
2013,05,05,16,26,25.90
2013,05,05,16,27,25.90
2013,05,05,16,28,25.90
2013,05,05,16,29,26.10
2013,05,05,16,30,26.20
2013,05,05,16,31,26.40
2013,05,05,16,32,26.40
2013,05,05,16,33,26.40
2013,05,05,16,34,26.40
2013,05,05,16,35,26.50
2013,05,05,16,36,26.60
2013,05,05,16,37,26.70
2013,05,05,16,38,26.80
2013,05,05,16,39,26.80
2013,05,05,16,40,26.90
2013,05,05,16,41,27.00
2013,05,05,16,42,27.10
2013,05,05,16,43,27.20
2013,05,05,16,44,27.20
2013,05,05,16,45,27.30
2013,05,05,16,46,27.20
2013,05,05,16,47,27.00
2013,05,05,16,48,26.80
2013,05,05,16,49,26.60
2013,05,05,16,50,26.40
2013,05,05,16,51,26.20
2013,05,05,16,52,26.10
2013,05,05,16,53,26.10
2013,05,05,16,54,26.00
2013,05,05,16,55,26.00
2013,05,05,16,56,26.00
2013,05,05,16,57,26.00
2013,05,05,16,58,26.10
2013,05,05,16,59,26.20
2013,05,05,17,00,26.20
2013,05,05,17,01,26.30
2013,05,05,17,02,26.40
2013,05,05,17,03,26.50
2013,05,05,17,04,26.50
2013,05,05,17,05,26.60
2013,05,05,17,06,26.60
2013,05,05,17,07,26.60
2013,05,05,17,08,26.70
2013,05,05,17,09,26.70
2013,05,05,17,10,26.80
2013,05,05,17,11,26.80
2013,05,05,17,12,26.80
2013,05,05,17,13,26.90
2013,05,05,17,14,27.00
2013,05,05,17,15,27.10
2013,05,05,17,16,27.20
2013,05,05,17,17,27.20
2013,05,05,17,18,27.20
2013,05,05,17,19,27.20